Overview Statistics Trail Chart Weather Telemetry Raw packets
 

This is the latest recevied weather packets stored in our database for station/object K4DNM. If no packets are shown the sender has not sent any weather packets the latest 10 day(s).

<< 74 75 76 77 78 79 80 >>
Time Temp. Humidity Pressure Rain* Wind** Luminosity Snow
1788018037 26.11° C 85% 1020.7 hPa 0 mm - 213 W/m² -
1788017782 26.11° C 85% 1020.7 hPa 0 mm - 153 W/m² -
1788017468 25.56° C 86% 1020.7 hPa 0 mm - 138 W/m² -
1788017152 25.56° C 88% 1020.8 hPa 0 mm - 159 W/m² -
1788016791 25.56° C 89% 1020.8 hPa 0 mm - 136 W/m² -
1788016537 25° C 90% 1020.7 hPa 0 mm - 151 W/m² -
1788016175 25° C 91% 1020.7 hPa 0 mm - 205 W/m² -
1788015936 24.44° C 91% 1020.8 hPa 0 mm - 142 W/m² -
1788015635 24.44° C 91% 1020.7 hPa 0 mm - 97 W/m² -
1788015276 24.44° C 91% 1020.8 hPa 0 mm - 42 W/m² -
1788014975 24.44° C 91% 1020.7 hPa 0 mm - 50 W/m² -
1788014675 24.44° C 90% 1020.7 hPa 0 mm - 54 W/m² -
1788014375 24.44° C 90% 1020.7 hPa 0 mm - 57 W/m² -
1788014064 24.44° C 90% 1020.7 hPa 0 mm - 36 W/m² -
1788013762 24.44° C 89% 1020.6 hPa 0 mm - 45 W/m² -
1788013522 24.44° C 89% 1020.5 hPa 0 mm - 47 W/m² -
1788013162 24.44° C 89% 1020.4 hPa 0 mm - 50 W/m² -
1788012861 25° C 89% 1020.3 hPa 0 mm - 48 W/m² -
1788012547 25.56° C 88% 1020.2 hPa 0 mm - 58 W/m² -
1788012247 25.56° C 88% 1020.1 hPa 0 mm - 54 W/m² -
1788011937 25.56° C 87% 1019.9 hPa 0 mm - 81 W/m² -
1788011619 25.56° C 88% 1019.8 hPa 0 mm - 133 W/m² -
1788011304 25.56° C 88% 1019.8 hPa 0 mm - 152 W/m² -
1788010994 25.56° C 88% 1019.9 hPa 0 mm - 125 W/m² -
1788010676 25° C 88% 1019.9 hPa 0 mm - 151 W/m² -

* Rain latest hour (hover to see other rain measurements)
** Current wind speed in m/s (hover to see current wind gust speed)